QPF
0.00 0.00 0.00 0.02 0.10 0.09 0.04 0.02 0.01 0.00 0.01 0.01 0.01 0.01 0.02 0.03 0.06 0.10 0.09 0.07 0.07 0.07 0.06 0.03 0.03 0.05 0.06 0.06 0.09 0.12 0.12 0.09 0.07 0.07 0.08 0.10 0.10 0.08 0.06 0.06 0.07 0.09 0.10 0.09 0.09 0.12 0.15 0.14 0.18
0.00 0.02 0.02 0.06 0.11 0.07 0.02 0.02 0.01 0.01 0.01 0.01 0.01 0.02 0.02 0.02 0.03 0.07 0.09 0.06 0.05 0.05 0.03 0.02 0.03 0.04 0.05 0.05 0.07 0.09 0.09 0.09 0.09 0.09 0.14 0.18 0.18 0.13 0.11 0.11 0.12 0.11 0.11 0.10 0.10 0.12 0.29 0.36 0.31
0.01 0.02 0.04 0.08 0.07 0.04 0.02 0.01 0.01 0.01 0.01 0.01 0.01 0.01 0.02 0.02 0.03 0.06 0.06 0.04 0.03 0.04 0.02 0.02 0.03 0.04 0.06 0.06 0.07 0.09 0.08 0.08 0.10 0.12 0.19 0.22 0.21 0.15 0.16 0.16 0.13 0.12 0.10 0.10 0.10 0.11 0.18 0.31 0.37
0.02 0.02 0.04 0.06 0.06 0.01 0.01 0.02 0.01 0.01 0.02 0.01 0.01 0.01 0.03 0.04 0.04 0.06 0.06 0.03 0.04 0.04 0.02 0.02 0.03 0.04 0.05 0.05 0.06 0.09 0.08 0.09 0.11 0.11 0.14 0.22 0.24 0.21 0.19 0.16 0.13 0.10 0.09 0.09 0.10 0.13 0.15 0.14 0.13
0.02 0.05 0.06 0.05 0.02 0.01 0.01 0.01 0.01 0.02 0.03 0.02 0.01 0.01 0.04 0.04 0.04 0.06 0.04 0.03 0.03 0.04 0.03 0.03 0.03 0.03 0.03 0.03 0.05 0.07 0.09 0.10 0.10 0.11 0.12 0.18 0.19 0.19 0.16 0.14 0.12 0.11 0.12 0.12 0.11 0.11 0.11 0.11 0.09
0.03 0.05 0.07 0.05 0.02 0.00 0.00 0.01 0.01 0.02 0.03 0.02 0.02 0.02 0.04 0.05 0.04 0.04 0.02 0.02 0.02 0.03 0.03 0.03 0.02 0.02 0.03 0.03 0.03 0.04 0.07 0.09 0.10 0.09 0.08 0.09 0.10 0.12 0.14 0.14 0.14 0.11 0.10 0.08 0.08 0.09 0.09 0.08 0.07
0.04 0.04 0.06 0.03 0.01 0.00 0.00 0.01 0.02 0.03 0.02 0.02 0.02 0.02 0.04 0.06 0.05 0.04 0.03 0.02 0.02 0.03 0.03 0.04 0.02 0.01 0.01 0.02 0.02 0.03 0.04 0.06 0.06 0.06 0.07 0.07 0.07 0.08 0.08 0.06 0.09 0.09 0.08 0.08 0.08 0.08 0.07 0.06 0.06
0.01 0.02 0.03 0.02 0.01 0.01 0.00 0.01 0.02 0.02 0.02 0.02 0.02 0.02 0.04 0.05 0.04 0.04 0.04 0.03 0.03 0.04 0.03 0.04 0.03 0.01 0.01 0.01 0.02 0.03 0.03 0.03 0.04 0.04 0.05 0.06 0.06 0.08 0.08 0.06 0.06 0.07 0.07 0.07 0.07 0.06 0.06 0.06 0.07
0.02 0.03 0.02 0.01 0.01 0.01 0.00 0.01 0.01 0.02 0.02 0.01 0.02 0.02 0.03 0.03 0.04 0.04 0.04 0.05 0.09 0.07 0.03 0.04 0.04 0.03 0.02 0.02 0.06 0.07 0.03 0.03 0.04 0.04 0.04 0.08 0.11 0.10 0.10 0.08 0.07 0.07 0.07 0.08 0.07 0.06 0.06 0.07 0.14
0.02 0.02 0.01 0.01 0.00 0.00 0.01 0.01 0.01 0.03 0.02 0.02 0.03 0.02 0.02 0.03 0.04 0.03 0.03 0.03 0.06 0.05 0.03 0.04 0.05 0.05 0.04 0.03 0.04 0.07 0.05 0.05 0.07 0.09 0.10 0.12 0.13 0.13 0.09 0.08 0.08 0.08 0.09 0.08 0.06 0.07 0.07 0.10 0.16
0.00 0.00 0.00 0.01 0.01 0.01 0.01 0.01 0.02 0.03 0.05 0.03 0.03 0.02 0.02 0.03 0.03 0.03 0.03 0.02 0.02 0.02 0.03 0.04 0.05 0.06 0.05 0.05 0.04 0.05 0.06 0.07 0.08 0.09 0.10 0.10 0.09 0.07 0.06 0.08 0.06 0.07 0.07 0.08 0.08 0.07 0.09 0.13 0.13
0.00 0.00 0.00 0.00 0.01 0.01 0.01 0.01 0.01 0.02 0.05 0.04 0.02 0.01 0.01 0.02 0.02 0.02 0.02 0.02 0.03 0.03 0.02 0.04 0.04 0.05 0.04 0.04 0.04 0.03 0.03 0.03 0.05 0.07 0.08 0.09 0.08 0.07 0.08 0.08 0.06 0.06 0.09 0.12 0.12 0.11 0.11 0.11 0.13
0.00 0.00 0.00 0.00 0.01 0.01 0.01 0.02 0.02 0.03 0.03 0.03 0.02 0.02 0.02 0.02 0.02 0.03 0.02 0.02 0.03 0.03 0.02 0.03 0.04 0.04 0.04 0.04 0.04 0.01 0.03 0.04 0.05 0.05 0.06 0.05 0.06 0.07 0.07 0.07 0.08 0.08 0.10 0.11 0.15 0.15 0.12 0.12 0.15
0.01 0.00 0.00 0.01 0.01 0.01 0.01 0.02 0.03 0.03 0.02 0.02 0.02 0.02 0.01 0.01 0.02 0.02 0.03 0.02 0.03 0.03 0.03 0.04 0.04 0.04 0.04 0.03 0.05 0.03 0.04 0.06 0.05 0.04 0.04 0.04 0.05 0.06 0.07 0.07 0.08 0.10 0.10 0.09 0.11 0.14 0.13 0.10 0.12
0.01 0.00 0.00 0.00 0.00 0.00 0.01 0.02 0.02 0.02 0.01 0.02 0.02 0.02 0.01 0.01 0.02 0.02 0.02 0.02 0.02 0.03 0.03 0.03 0.03 0.03 0.04 0.04 0.05 0.05 0.04 0.04 0.04 0.04 0.04 0.03 0.03 0.06 0.07 0.07 0.07 0.09 0.09 0.07 0.08 0.10 0.12 0.12 0.11
0.01 0.01 0.00 0.00 0.00 0.00 0.01 0.03 0.01 0.01 0.01 0.02 0.02 0.01 0.01 0.01 0.01 0.01 0.02 0.02 0.03 0.02 0.03 0.04 0.03 0.01 0.02 0.06 0.06 0.07 0.05 0.04 0.04 0.04 0.03 0.03 0.03 0.04 0.06 0.07 0.07 0.08 0.08 0.07 0.09 0.10 0.12 0.13 0.14
0.00 0.00 0.01 0.01 0.00 0.00 0.01 0.02 0.01 0.01 0.01 0.02 0.02 0.02 0.01 0.01 0.01 0.02 0.02 0.02 0.02 0.01 0.01 0.02 0.02 0.01 0.02 0.04 0.06 0.06 0.05 0.04 0.04 0.04 0.04 0.04 0.03 0.02 0.06 0.13 0.09 0.08 0.08 0.08 0.09 0.11 0.13 0.14 0.14
0.00 0.00 0.02 0.02 0.01 0.01 0.01 0.02 0.01 0.00 0.01 0.01 0.02 0.02 0.01 0.01 0.02 0.02 0.01 0.01 0.01 0.01 0.01 0.02 0.02 0.01 0.02 0.04 0.05 0.06 0.05 0.04 0.04 0.04 0.05 0.04 0.04 0.03 0.06 0.16 0.15 0.09 0.10 0.13 0.15 0.15 0.15 0.15 0.11
0.00 0.01 0.02 0.03 0.03 0.04 0.01 0.01 0.02 0.01 0.02 0.03 0.02 0.02 0.01 0.01 0.01 0.01 0.01 0.00 0.00 0.01 0.01 0.02 0.02 0.02 0.03 0.04 0.04 0.05 0.06 0.05 0.04 0.03 0.03 0.04 0.04 0.03 0.04 0.09 0.15 0.10 0.10 0.12 0.14 0.14 0.13 0.12 0.10
0.00 0.00 0.01 0.03 0.02 0.03 0.02 0.01 0.01 0.01 0.01 0.02 0.01 0.01 0.01 0.01 0.01 0.01 0.00 0.00 0.00 0.01 0.01 0.02 0.02 0.02 0.03 0.03 0.03 0.03 0.04 0.05 0.05 0.04 0.03 0.02 0.02 0.02 0.04 0.06 0.07 0.08 0.10 0.11 0.12 0.10 0.08 0.09 0.09
0.00 0.00 0.01 0.04 0.03 0.01 0.01 0.02 0.01 0.01 0.01 0.01 0.01 0.01 0.01 0.01 0.01 0.01 0.00 0.00 0.00 0.01 0.01 0.01 0.02 0.02 0.02 0.02 0.02 0.03 0.04 0.05 0.05 0.03 0.03 0.02 0.03 0.03 0.03 0.04 0.05 0.07 0.08 0.10 0.09 0.07 0.08 0.08 0.08
0.00 0.00 0.00 0.01 0.02 0.01 0.01 0.02 0.01 0.01 0.02 0.02 0.01 0.01 0.01 0.01 0.00 0.00 0.00 0.00 0.00 0.01 0.01 0.01 0.02 0.02 0.02 0.02 0.02 0.03 0.04 0.04 0.04 0.03 0.02 0.02 0.02 0.03 0.03 0.03 0.05 0.07 0.07 0.09 0.08 0.08 0.08 0.08 0.07
0.00 0.00 0.00 0.01 0.01 0.01 0.01 0.01 0.03 0.03 0.03 0.05 0.03 0.01 0.01 0.01 0.00 0.00 0.00 0.00 0.00 0.01 0.01 0.01 0.02 0.02 0.02 0.02 0.02 0.02 0.03 0.03 0.02 0.02 0.02 0.02 0.02 0.02 0.02 0.03 0.04 0.05 0.06 0.07 0.09 0.09 0.08 0.08 0.09
0.00 0.00 0.01 0.02 0.01 0.01 0.02 0.02 0.03 0.03 0.02 0.02 0.01 0.01 0.01 0.01 0.00 0.00 0.00 0.01 0.01 0.01 0.01 0.00 0.01 0.02 0.02 0.01 0.01 0.02 0.02 0.02 0.02 0.02 0.02 0.02 0.02 0.02 0.02 0.03 0.03 0.04 0.04 0.05 0.06 0.07 0.09 0.09 0.10
0.00 0.00 0.01 0.02 0.01 0.01 0.01 0.01 0.01 0.01 0.03 0.04 0.03 0.01 0.01 0.01 0.01 0.00 0.01 0.01 0.01 0.01 0.01 0.00 0.00 0.01 0.01 0.01 0.01 0.02 0.03 0.02 0.02 0.02 0.01 0.01 0.01 0.01 0.02 0.03 0.04 0.04 0.04 0.03 0.03 0.04 0.06 0.07 0.09
0.00 0.00 0.00 0.01 0.01 0.01 0.01 0.00 0.01 0.00 0.00 0.01 0.01 0.01 0.02 0.01 0.01 0.01 0.01 0.01 0.00 0.00 0.00 0.00 0.00 0.01 0.02 0.01 0.01 0.02 0.02 0.01 0.02 0.02 0.01 0.01 0.01 0.01 0.01 0.02 0.03 0.03 0.04 0.03 0.04 0.04 0.04 0.05 0.06
0.00 0.00 0.00 0.00 0.00 0.01 0.01 0.01 0.03 0.01 0.00 0.00 0.00 0.01 0.01 0.01 0.01 0.01 0.01 0.01 0.01 0.00 0.00 0.00 0.00 0.01 0.02 0.01 0.02 0.02 0.01 0.02 0.02 0.02 0.01 0.01 0.01 0.01 0.01 0.01 0.02 0.02 0.03 0.04 0.05 0.05 0.05 0.05 0.05
0.00 0.00 0.00 0.00 0.01 0.01 0.01 0.03 0.04 0.04 0.01 0.00 0.00 0.01 0.01 0.01 0.01 0.00 0.01 0.01 0.01 0.00 0.00 0.01 0.01 0.02 0.02 0.01 0.02 0.01 0.02 0.02 0.02 0.01 0.01 0.01 0.02 0.02 0.02 0.02 0.02 0.03 0.03 0.04 0.04 0.05 0.06 0.06 0.06
0.00 0.00 0.00 0.00 0.00 0.01 0.02 0.03 0.03 0.02 0.01 0.00 0.00 0.00 0.01 0.01 0.01 0.00 0.01 0.01 0.01 0.01 0.01 0.01 0.01 0.02 0.02 0.02 0.02 0.02 0.02 0.02 0.02 0.01 0.01 0.01 0.02 0.03 0.03 0.03 0.04 0.04 0.04 0.04 0.04 0.04 0.05 0.06 0.06
0.00 0.00 0.00 0.00 0.00 0.00 0.01 0.01 0.02 0.01 0.01 0.01 0.01 0.00 0.00 0.01 0.01 0.01 0.01 0.01 0.01 0.01 0.01 0.01 0.02 0.02 0.02 0.01 0.02 0.03 0.02 0.02 0.01 0.01 0.01 0.01 0.03 0.04 0.04 0.05 0.04 0.04 0.03 0.03 0.04 0.04 0.05 0.06 0.05
MSLP
1004.77 1005.38 1005.95 1006.37 1006.59 1006.58 1006.36 1005.98 1005.54 1005.12 1004.82 1004.69 1004.73 1004.94 1005.24 1005.59 1005.91 1006.17 1006.35 1006.49 1006.63 1006.82 1007.12 1007.53 1008.05 1008.64 1009.24 1009.80 1010.27 1010.63 1010.91 1011.13 1011.34 1011.58 1011.86 1012.19 1012.54 1012.87 1013.15 1013.36 1013.49 1013.57 1013.61 1013.66 1013.74 1013.85 1013.99 1014.13 1014.24
1005.10 1005.79 1006.35 1006.68 1006.75 1006.55 1006.13 1005.58 1005.00 1004.50 1004.17 1004.04 1004.10 1004.33 1004.66 1005.02 1005.37 1005.66 1005.92 1006.17 1006.45 1006.80 1007.25 1007.81 1008.44 1009.09 1009.71 1010.25 1010.69 1011.02 1011.27 1011.49 1011.70 1011.95 1012.25 1012.57 1012.90 1013.20 1013.44 1013.61 1013.71 1013.77 1013.82 1013.88 1013.98 1014.10 1014.22 1014.33 1014.40
1005.51 1006.23 1006.75 1006.98 1006.90 1006.52 1005.92 1005.22 1004.54 1003.99 1003.63 1003.50 1003.58 1003.81 1004.14 1004.51 1004.87 1005.21 1005.53 1005.89 1006.30 1006.81 1007.42 1008.11 1008.83 1009.54 1010.18 1010.71 1011.12 1011.43 1011.66 1011.87 1012.09 1012.34 1012.63 1012.94 1013.24 1013.50 1013.69 1013.83 1013.91 1013.97 1014.03 1014.11 1014.23 1014.36 1014.47 1014.55 1014.57
1005.89 1006.61 1007.07 1007.20 1006.98 1006.47 1005.77 1005.00 1004.27 1003.71 1003.36 1003.24 1003.33 1003.55 1003.87 1004.21 1004.56 1004.91 1005.29 1005.74 1006.27 1006.92 1007.65 1008.45 1009.26 1010.01 1010.65 1011.17 1011.56 1011.85 1012.07 1012.27 1012.49 1012.74 1013.01 1013.30 1013.56 1013.77 1013.93 1014.04 1014.11 1014.17 1014.26 1014.37 1014.51 1014.65 1014.75 1014.79 1014.75
1006.14 1006.81 1007.19 1007.24 1006.95 1006.39 1005.68 1004.92 1004.25 1003.75 1003.46 1003.37 1003.46 1003.66 1003.93 1004.22 1004.53 1004.87 1005.28 1005.78 1006.40 1007.14 1007.98 1008.85 1009.71 1010.48 1011.12 1011.62 1011.98 1012.25 1012.46 1012.66 1012.88 1013.12 1013.38 1013.64 1013.87 1014.04 1014.17 1014.25 1014.33 1014.41 1014.52 1014.67 1014.82 1014.96 1015.03 1015.03 1014.93
1006.15 1006.73 1007.03 1007.02 1006.73 1006.22 1005.60 1004.98 1004.45 1004.09 1003.91 1003.89 1003.99 1004.15 1004.35 1004.57 1004.81 1005.10 1005.50 1006.03 1006.70 1007.50 1008.39 1009.30 1010.17 1010.93 1011.55 1012.02 1012.36 1012.60 1012.81 1013.01 1013.23 1013.47 1013.72 1013.96 1014.15 1014.30 1014.40 1014.48 1014.56 1014.66 1014.80 1014.96 1015.12 1015.24 1015.29 1015.23 1015.07
1005.86 1006.32 1006.54 1006.52 1006.28 1005.91 1005.49 1005.10 1004.81 1004.66 1004.63 1004.70 1004.81 1004.94 1005.06 1005.18 1005.33 1005.56 1005.93 1006.45 1007.14 1007.96 1008.87 1009.79 1010.63 1011.36 1011.93 1012.35 1012.65 1012.88 1013.08 1013.28 1013.51 1013.76 1014.00 1014.22 1014.40 1014.53 1014.62 1014.69 1014.77 1014.89 1015.04 1015.20 1015.35 1015.45 1015.45 1015.35 1015.14
1005.30 1005.62 1005.77 1005.75 1005.63 1005.45 1005.29 1005.20 1005.21 1005.31 1005.46 1005.63 1005.77 1005.85 1005.89 1005.91 1005.97 1006.14 1006.46 1006.97 1007.66 1008.48 1009.38 1010.26 1011.06 1011.72 1012.23 1012.59 1012.85 1013.06 1013.25 1013.46 1013.71 1013.96 1014.21 1014.43 1014.59 1014.71 1014.78 1014.85 1014.93 1015.05 1015.20 1015.35 1015.48 1015.53 1015.49 1015.34 1015.08
1004.56 1004.73 1004.80 1004.81 1004.81 1004.86 1004.99 1005.22 1005.53 1005.89 1006.22 1006.49 1006.65 1006.69 1006.66 1006.59 1006.58 1006.70 1007.00 1007.50 1008.18 1008.99 1009.86 1010.69 1011.42 1012.01 1012.44 1012.74 1012.96 1013.14 1013.33 1013.55 1013.81 1014.09 1014.34 1014.56 1014.71 1014.82 1014.88 1014.94 1015.01 1015.12 1015.25 1015.37 1015.46 1015.48 1015.38 1015.18 1014.90
1003.76 1003.78 1003.78 1003.81 1003.94 1004.20 1004.60 1005.12 1005.71 1006.29 1006.78 1007.12 1007.30 1007.31 1007.22 1007.09 1007.04 1007.13 1007.43 1007.94 1008.63 1009.44 1010.27 1011.05 1011.71 1012.21 1012.57 1012.81 1012.98 1013.14 1013.33 1013.57 1013.85 1014.13 1014.40 1014.62 1014.77 1014.86 1014.91 1014.96 1015.01 1015.10 1015.19 1015.28 1015.33 1015.29 1015.15 1014.91 1014.60
1003.06 1002.93 1002.85 1002.89 1003.11 1003.54 1004.16 1004.91 1005.71 1006.45 1007.05 1007.44 1007.62 1007.61 1007.48 1007.33 1007.27 1007.38 1007.70 1008.25 1008.96 1009.77 1010.58 1011.32 1011.91 1012.34 1012.62 1012.81 1012.94 1013.09 1013.28 1013.54 1013.83 1014.13 1014.41 1014.63 1014.78 1014.86 1014.90 1014.92 1014.95 1015.01 1015.07 1015.12 1015.11 1015.03 1014.85 1014.58 1014.25
1002.56 1002.30 1002.14 1002.16 1002.43 1002.97 1003.72 1004.62 1005.55 1006.39 1007.04 1007.45 1007.61 1007.57 1007.43 1007.28 1007.25 1007.41 1007.79 1008.39 1009.15 1009.97 1010.78 1011.47 1012.01 1012.39 1012.62 1012.76 1012.88 1013.02 1013.22 1013.48 1013.80 1014.11 1014.40 1014.62 1014.76 1014.83 1014.86 1014.86 1014.87 1014.89 1014.92 1014.93 1014.89 1014.77 1014.55 1014.26 1013.92
1002.33 1001.95 1001.70 1001.69 1001.97 1002.55 1003.37 1004.33 1005.31 1006.17 1006.82 1007.21 1007.35 1007.29 1007.15 1007.03 1007.05 1007.28 1007.73 1008.40 1009.20 1010.05 1010.85 1011.53 1012.03 1012.37 1012.57 1012.69 1012.80 1012.95 1013.16 1013.45 1013.77 1014.10 1014.39 1014.61 1014.75 1014.82 1014.83 1014.82 1014.82 1014.81 1014.81 1014.79 1014.72 1014.57 1014.33 1014.02 1013.66
1002.34 1001.87 1001.55 1001.49 1001.75 1002.33 1003.15 1004.11 1005.07 1005.91 1006.52 1006.86 1006.97 1006.91 1006.78 1006.70 1006.77 1007.07 1007.60 1008.32 1009.16 1010.03 1010.83 1011.49 1011.97 1012.29 1012.48 1012.61 1012.73 1012.90 1013.14 1013.44 1013.78 1014.12 1014.42 1014.64 1014.78 1014.84 1014.85 1014.84 1014.82 1014.80 1014.78 1014.74 1014.65 1014.48 1014.24 1013.92 1013.55
1002.50 1001.97 1001.60 1001.50 1001.74 1002.29 1003.09 1004.02 1004.93 1005.71 1006.26 1006.56 1006.64 1006.56 1006.45 1006.41 1006.54 1006.90 1007.47 1008.23 1009.08 1009.95 1010.74 1011.39 1011.86 1012.18 1012.39 1012.54 1012.70 1012.90 1013.16 1013.48 1013.84 1014.18 1014.48 1014.70 1014.85 1014.92 1014.93 1014.92 1014.90 1014.87 1014.85 1014.80 1014.70 1014.53 1014.29 1013.97 1013.61
1002.70 1002.14 1001.75 1001.65 1001.88 1002.42 1003.19 1004.07 1004.94 1005.65 1006.15 1006.41 1006.46 1006.39 1006.29 1006.29 1006.45 1006.84 1007.43 1008.18 1009.02 1009.87 1010.63 1011.26 1011.74 1012.07 1012.31 1012.51 1012.71 1012.94 1013.24 1013.58 1013.94 1014.29 1014.58 1014.81 1014.95 1015.03 1015.05 1015.05 1015.04 1015.02 1014.99 1014.94 1014.85 1014.69 1014.46 1014.16 1013.81
1002.82 1002.26 1001.90 1001.84 1002.10 1002.66 1003.42 1004.28 1005.10 1005.77 1006.23 1006.45 1006.49 1006.42 1006.35 1006.36 1006.54 1006.93 1007.50 1008.22 1009.02 1009.82 1010.54 1011.16 1011.64 1012.00 1012.29 1012.53 1012.78 1013.06 1013.38 1013.74 1014.09 1014.43 1014.72 1014.93 1015.08 1015.17 1015.21 1015.22 1015.21 1015.20 1015.18 1015.14 1015.06 1014.92 1014.72 1014.46 1014.14
1002.78 1002.28 1001.99 1002.01 1002.35 1002.96 1003.75 1004.61 1005.41 1006.04 1006.46 1006.67 1006.70 1006.64 1006.58 1006.60 1006.78 1007.15 1007.68 1008.35 1009.08 1009.82 1010.51 1011.10 1011.60 1012.00 1012.33 1012.64 1012.94 1013.26 1013.60 1013.95 1014.30 1014.61 1014.87 1015.08 1015.22 1015.31 1015.36 1015.39 1015.40 1015.40 1015.39 1015.35 1015.29 1015.18 1015.01 1014.80 1014.53
1002.56 1002.16 1002.01 1002.16 1002.61 1003.30 1004.14 1005.00 1005.79 1006.39 1006.79 1006.97 1007.00 1006.95 1006.90 1006.93 1007.10 1007.43 1007.92 1008.52 1009.19 1009.88 1010.53 1011.12 1011.63 1012.08 1012.48 1012.84 1013.20 1013.55 1013.90 1014.23 1014.54 1014.81 1015.04 1015.22 1015.35 1015.44 1015.50 1015.54 1015.56 1015.58 1015.57 1015.55 1015.50 1015.41 1015.29 1015.13 1014.93
1002.21 1001.96 1001.97 1002.28 1002.87 1003.66 1004.54 1005.41 1006.17 1006.74 1007.09 1007.25 1007.27 1007.22 1007.18 1007.21 1007.38 1007.69 1008.14 1008.69 1009.31 1009.96 1010.59 1011.19 1011.74 1012.25 1012.71 1013.14 1013.54 1013.91 1014.25 1014.55 1014.82 1015.03 1015.21 1015.34 1015.45 1015.53 1015.60 1015.65 1015.69 1015.72 1015.72 1015.70 1015.67 1015.61 1015.53 1015.42 1015.29
1001.82 1001.74 1001.95 1002.43 1003.16 1004.03 1004.94 1005.79 1006.49 1006.99 1007.28 1007.39 1007.38 1007.32 1007.29 1007.34 1007.51 1007.82 1008.25 1008.79 1009.39 1010.03 1010.67 1011.30 1011.90 1012.47 1013.01 1013.49 1013.93 1014.32 1014.64 1014.90 1015.10 1015.25 1015.36 1015.44 1015.52 1015.59 1015.66 1015.72 1015.78 1015.82 1015.83 1015.82 1015.79 1015.75 1015.70 1015.64 1015.58
1001.47 1001.59 1001.99 1002.64 1003.48 1004.39 1005.29 1006.08 1006.68 1007.08 1007.27 1007.31 1007.25 1007.18 1007.16 1007.23 1007.43 1007.76 1008.21 1008.76 1009.37 1010.03 1010.71 1011.39 1012.06 1012.71 1013.31 1013.86 1014.34 1014.72 1015.02 1015.23 1015.36 1015.44 1015.48 1015.51 1015.55 1015.61 1015.68 1015.76 1015.83 1015.88 1015.90 1015.90 1015.87 1015.83 1015.80 1015.78 1015.77
1001.26 1001.57 1002.14 1002.92 1003.82 1004.74 1005.57 1006.25 1006.72 1006.97 1007.04 1006.99 1006.88 1006.79 1006.77 1006.88 1007.12 1007.50 1007.99 1008.58 1009.24 1009.95 1010.68 1011.43 1012.18 1012.90 1013.57 1014.17 1014.68 1015.07 1015.35 1015.51 1015.58 1015.58 1015.56 1015.54 1015.55 1015.59 1015.67 1015.76 1015.85 1015.92 1015.95 1015.95 1015.92 1015.88 1015.85 1015.83 1015.85
1001.20 1001.67 1002.38 1003.23 1004.15 1005.02 1005.75 1006.28 1006.59 1006.68 1006.62 1006.46 1006.30 1006.19 1006.20 1006.35 1006.65 1007.09 1007.64 1008.29 1009.01 1009.77 1010.57 1011.38 1012.20 1012.99 1013.73 1014.38 1014.91 1015.31 1015.57 1015.70 1015.72 1015.67 1015.59 1015.53 1015.51 1015.55 1015.63 1015.73 1015.84 1015.93 1015.98 1015.98 1015.94 1015.89 1015.84 1015.82 1015.82
1001.28 1001.86 1002.64 1003.51 1004.39 1005.17 1005.77 1006.14 1006.29 1006.23 1006.04 1005.81 1005.61 1005.51 1005.55 1005.75 1006.12 1006.62 1007.25 1007.95 1008.72 1009.54 1010.39 1011.25 1012.12 1012.96 1013.75 1014.44 1015.00 1015.41 1015.67 1015.78 1015.76 1015.68 1015.57 1015.49 1015.45 1015.48 1015.57 1015.69 1015.82 1015.93 1015.99 1015.99 1015.95 1015.87 1015.79 1015.74 1015.72
1001.44 1002.06 1002.84 1003.67 1004.47 1005.13 1005.59 1005.82 1005.83 1005.66 1005.39 1005.12 1004.91 1004.84 1004.93 1005.20 1005.64 1006.21 1006.89 1007.65 1008.45 1009.30 1010.17 1011.06 1011.96 1012.83 1013.64 1014.35 1014.94 1015.37 1015.63 1015.74 1015.72 1015.63 1015.51 1015.42 1015.37 1015.40 1015.50 1015.64 1015.78 1015.90 1015.97 1015.98 1015.92 1015.83 1015.71 1015.62 1015.56
1001.60 1002.18 1002.90 1003.64 1004.32 1004.85 1005.19 1005.30 1005.22 1004.99 1004.71 1004.46 1004.30 1004.29 1004.46 1004.81 1005.32 1005.95 1006.68 1007.45 1008.27 1009.12 1009.98 1010.87 1011.75 1012.62 1013.43 1014.15 1014.75 1015.20 1015.48 1015.60 1015.60 1015.52 1015.42 1015.33 1015.30 1015.33 1015.43 1015.58 1015.73 1015.86 1015.93 1015.93 1015.87 1015.75 1015.61 1015.47 1015.37
1001.71 1002.19 1002.77 1003.38 1003.92 1004.32 1004.55 1004.60 1004.49 1004.28 1004.05 1003.87 1003.81 1003.90 1004.18 1004.62 1005.20 1005.89 1006.64 1007.42 1008.23 1009.04 1009.87 1010.71 1011.56 1012.39 1013.17 1013.88 1014.48 1014.93 1015.24 1015.39 1015.43 1015.38 1015.31 1015.24 1015.22 1015.27 1015.37 1015.52 1015.67 1015.79 1015.86 1015.86 1015.79 1015.66 1015.49 1015.33 1015.20
1001.77 1002.07 1002.47 1002.90 1003.28 1003.57 1003.73 1003.75 1003.67 1003.53 1003.41 1003.36 1003.44 1003.67 1004.07 1004.62 1005.27 1006.01 1006.77 1007.55 1008.33 1009.10 1009.87 1010.64 1011.42 1012.18 1012.92 1013.59 1014.16 1014.62 1014.94 1015.13 1015.21 1015.22 1015.18 1015.16 1015.16 1015.22 1015.32 1015.46 1015.60 1015.71 1015.77 1015.76 1015.68 1015.54 1015.38 1015.21 1015.06
1001.80 1001.89 1002.07 1002.30 1002.52 1002.69 1002.79 1002.82 1002.80 1002.77 1002.79 1002.91 1003.15 1003.54 1004.07 1004.72 1005.45 1006.23 1007.01 1007.78 1008.52 1009.24 1009.95 1010.65 1011.34 1012.03 1012.69 1013.30 1013.84 1014.28 1014.62 1014.84 1014.96 1015.02 1015.05 1015.06 1015.10 1015.18 1015.28 1015.41 1015.53 1015.62 1015.66 1015.64 1015.55 1015.42 1015.26 1015.11 1014.98
Thickness
5834 5836 5836 5827 5807 5800 5801 5809 5816 5814 5815 5822 5824 5818 5806 5799 5789 5777 5802 5812 5810 5805 5800 5797 5795 5794 5793 5792 5791 5791 5790 5789 5789 5788 5787 5786 5785 5784 5783 5783 5782 5781 5779 5778 5776 5774 5773 5772 5770
5841 5842 5833 5820 5801 5793 5798 5813 5812 5814 5821 5827 5824 5818 5808 5801 5806 5803 5807 5811 5812 5807 5802 5798 5795 5793 5792 5791 5790 5790 5789 5788 5788 5787 5786 5785 5784 5783 5783 5782 5781 5780 5778 5776 5775 5774 5772 5771 5769
5843 5845 5826 5818 5811 5801 5801 5816 5817 5824 5830 5826 5817 5815 5806 5801 5807 5807 5811 5815 5813 5808 5804 5798 5795 5793 5792 5791 5790 5789 5788 5788 5787 5786 5785 5785 5784 5782 5782 5781 5780 5778 5777 5775 5774 5773 5771 5770 5768
5845 5840 5830 5820 5810 5818 5820 5823 5827 5823 5826 5827 5818 5806 5806 5814 5813 5814 5817 5817 5813 5809 5805 5799 5796 5794 5792 5791 5789 5789 5788 5787 5786 5786 5785 5784 5783 5782 5781 5780 5779 5778 5776 5775 5773 5772 5770 5769 5768
5848 5831 5819 5814 5816 5826 5832 5834 5833 5822 5819 5821 5815 5800 5798 5813 5820 5820 5819 5817 5813 5810 5806 5800 5796 5793 5791 5790 5789 5788 5788 5786 5786 5785 5784 5783 5782 5781 5780 5780 5779 5777 5775 5774 5773 5771 5770 5768 5767
5836 5831 5812 5807 5814 5827 5835 5839 5834 5823 5819 5820 5813 5801 5798 5814 5816 5817 5819 5817 5815 5811 5806 5800 5796 5794 5792 5790 5789 5788 5788 5786 5785 5784 5783 5782 5782 5781 5780 5780 5779 5777 5775 5774 5772 5771 5770 5769 5768
5833 5824 5816 5819 5817 5821 5832 5842 5833 5823 5819 5820 5822 5803 5800 5810 5816 5818 5818 5817 5815 5811 5807 5802 5797 5794 5792 5790 5789 5788 5787 5786 5785 5783 5783 5782 5781 5781 5780 5780 5779 5777 5776 5774 5772 5771 5770 5769 5768
5855 5835 5825 5824 5820 5820 5837 5841 5839 5830 5823 5834 5831 5806 5798 5810 5819 5819 5817 5815 5813 5810 5807 5804 5801 5797 5795 5791 5789 5788 5787 5786 5785 5783 5783 5782 5782 5781 5781 5780 5779 5778 5776 5774 5772 5771 5770 5769 5769
5864 5831 5820 5825 5826 5827 5840 5835 5837 5841 5831 5830 5831 5823 5818 5820 5820 5815 5810 5808 5807 5807 5807 5805 5802 5800 5798 5795 5791 5789 5787 5786 5785 5784 5783 5783 5782 5783 5782 5781 5780 5778 5776 5774 5773 5772 5771 5770 5770
5854 5827 5829 5846 5847 5840 5841 5837 5836 5831 5822 5819 5820 5822 5824 5821 5815 5809 5804 5802 5802 5802 5804 5805 5802 5800 5799 5797 5793 5790 5789 5787 5786 5785 5784 5784 5784 5783 5783 5781 5779 5778 5776 5775 5773 5773 5772 5771 5770
5859 5842 5848 5854 5857 5853 5844 5842 5843 5830 5816 5818 5815 5816 5819 5817 5813 5809 5806 5804 5802 5804 5805 5805 5803 5800 5799 5797 5794 5792 5791 5789 5787 5786 5786 5785 5785 5784 5782 5780 5779 5778 5777 5775 5774 5773 5772 5772 5771
5859 5858 5860 5858 5861 5855 5848 5845 5839 5833 5828 5833 5829 5825 5820 5815 5813 5811 5808 5806 5805 5804 5804 5804 5803 5800 5798 5798 5796 5794 5792 5790 5789 5788 5786 5786 5785 5783 5782 5781 5780 5779 5778 5776 5775 5774 5773 5772 5771
5858 5858 5862 5864 5862 5857 5852 5843 5837 5833 5839 5839 5833 5826 5821 5818 5816 5816 5814 5811 5807 5805 5804 5803 5802 5800 5799 5797 5796 5795 5793 5791 5790 5789 5787 5787 5785 5783 5782 5781 5780 5780 5779 5777 5775 5774 5772 5771 5770
5860 5860 5860 5861 5859 5857 5846 5841 5837 5833 5840 5835 5829 5823 5822 5820 5818 5816 5813 5810 5808 5806 5805 5804 5802 5801 5799 5797 5796 5795 5794 5792 5791 5790 5789 5788 5786 5784 5783 5782 5781 5780 5779 5778 5776 5774 5773 5771 5770
5864 5852 5850 5856 5858 5855 5847 5827 5831 5840 5840 5831 5827 5825 5823 5822 5821 5817 5815 5813 5810 5808 5807 5805 5804 5801 5799 5797 5797 5796 5795 5794 5791 5789 5789 5788 5787 5785 5784 5783 5782 5781 5780 5778 5776 5775 5773 5771 5770
5855 5843 5831 5849 5859 5860 5842 5812 5833 5846 5838 5829 5827 5826 5823 5822 5822 5821 5819 5816 5814 5811 5808 5806 5806 5802 5799 5798 5797 5797 5796 5794 5792 5791 5789 5788 5787 5786 5784 5783 5782 5781 5780 5779 5776 5773 5771 5769 5767
5840 5829 5829 5843 5862 5860 5845 5823 5837 5847 5839 5830 5828 5827 5824 5822 5822 5822 5822 5819 5816 5812 5809 5806 5805 5802 5800 5799 5798 5797 5796 5794 5793 5792 5790 5789 5788 5787 5785 5783 5783 5782 5780 5778 5777 5773 5771 5767 5766
5830 5834 5834 5840 5857 5853 5842 5834 5840 5846 5840 5833 5831 5829 5826 5822 5822 5824 5823 5821 5818 5814 5810 5807 5805 5803 5802 5800 5798 5797 5796 5795 5794 5792 5790 5789 5788 5787 5786 5784 5783 5782 5780 5777 5775 5772 5771 5769 5767
5850 5842 5835 5843 5861 5849 5837 5836 5840 5843 5841 5834 5831 5830 5827 5825 5827 5827 5825 5822 5818 5813 5809 5807 5804 5803 5801 5798 5796 5794 5793 5793 5793 5793 5791 5790 5788 5787 5786 5785 5784 5783 5780 5777 5776 5773 5770 5768 5768
5851 5837 5832 5844 5857 5846 5833 5833 5845 5847 5843 5842 5837 5834 5831 5828 5826 5825 5824 5822 5818 5813 5810 5807 5805 5803 5802 5800 5798 5796 5795 5795 5794 5794 5792 5790 5789 5788 5787 5784 5783 5782 5780 5777 5776 5773 5769 5768 5769
5847 5840 5838 5836 5847 5847 5833 5824 5835 5845 5848 5849 5847 5843 5838 5833 5827 5825 5823 5822 5819 5815 5812 5810 5806 5804 5803 5802 5800 5798 5796 5794 5793 5791 5790 5790 5789 5788 5786 5785 5783 5782 5780 5777 5775 5773 5770 5765 5766
5839 5855 5850 5841 5828 5825 5834 5806 5824 5838 5837 5841 5844 5843 5841 5839 5834 5830 5826 5823 5821 5819 5816 5812 5808 5806 5804 5803 5800 5796 5791 5788 5790 5791 5790 5790 5790 5788 5787 5785 5783 5781 5780 5777 5776 5774 5772 5768 5763
5850 5861 5852 5843 5829 5824 5834 5818 5819 5835 5829 5835 5843 5845 5845 5843 5840 5835 5831 5827 5826 5824 5819 5815 5810 5807 5805 5803 5800 5796 5793 5792 5792 5792 5790 5789 5789 5789 5787 5785 5783 5781 5779 5777 5776 5774 5772 5769 5765
5861 5855 5849 5841 5827 5806 5825 5818 5811 5830 5833 5837 5843 5847 5848 5847 5845 5840 5836 5831 5828 5826 5822 5817 5811 5807 5806 5804 5801 5797 5794 5792 5790 5789 5788 5788 5788 5787 5787 5785 5783 5781 5779 5778 5776 5774 5771 5769 5767
5853 5832 5809 5798 5795 5802 5830 5822 5823 5847 5852 5847 5845 5848 5850 5850 5847 5842 5836 5831 5829 5826 5823 5818 5812 5807 5806 5804 5801 5798 5796 5794 5791 5789 5788 5787 5786 5785 5785 5786 5783 5781 5780 5778 5776 5774 5772 5770 5767
5846 5837 5806 5788 5793 5808 5824 5817 5830 5854 5860 5860 5856 5854 5853 5851 5849 5844 5840 5835 5832 5828 5824 5819 5813 5809 5807 5804 5802 5800 5798 5795 5793 5791 5790 5789 5787 5787 5787 5785 5783 5781 5780 5778 5776 5774 5772 5770 5768
5840 5839 5848 5827 5820 5808 5814 5820 5832 5847 5850 5853 5854 5854 5852 5852 5850 5846 5844 5840 5836 5831 5826 5822 5815 5811 5808 5805 5802 5800 5798 5796 5794 5793 5792 5790 5789 5788 5786 5784 5783 5781 5779 5778 5775 5773 5771 5770 5767
5855 5849 5839 5822 5798 5789 5799 5804 5808 5822 5833 5844 5847 5848 5849 5851 5850 5848 5845 5842 5839 5835 5830 5825 5819 5813 5810 5807 5803 5801 5798 5797 5795 5793 5791 5790 5788 5787 5784 5783 5781 5780 5778 5777 5774 5772 5771 5768 5766
5842 5839 5833 5826 5819 5797 5784 5798 5837 5834 5838 5842 5847 5849 5848 5849 5848 5847 5846 5843 5840 5836 5832 5825 5820 5815 5810 5807 5804 5802 5799 5797 5794 5792 5790 5789 5787 5785 5782 5781 5779 5777 5775 5774 5772 5770 5768 5766 5764
5849 5841 5835 5811 5807 5814 5803 5805 5850 5846 5847 5845 5845 5846 5848 5847 5849 5848 5845 5841 5837 5834 5830 5824 5820 5815 5812 5808 5805 5801 5799 5796 5793 5791 5790 5788 5785 5783 5781 5779 5776 5775 5773 5772 5770 5768 5766 5763 5761